Regional Weather Roundup
Issued by NWS

Home | Current Version | Previous Version | Graphics & Text | Print | Product List | Glossary On
Versions: 1 2 3 4 5 6 7 8 9 10 11 12 13 14 15 16 17 18 19 20 21 22 23 24 25 26 27 28 29 30 31 32 33 34 35 36 37 38 39 40 41 42 43 44 45 46 47 48 49 50
000
ASUS43 KDMX 211407
RWRIA

WEATHER ROUNDUP FOR IOWA
NATIONAL WEATHER SERVICE DES MOINES IA
900 AM CDT THU AUG 21 2014

NOTE: "FAIR" INDICATES FEW OR NO CLOUDS BELOW 12,000 FEET WITH NO
SIGNIFICANT WEATHER AND/OR OBSTRUCTIONS TO VISIBILITY.

* - THESE STATIONS ARE NOT NWS STATIONS...THUS NOT UNDER NWS
QUALITY CONTROL.  THEY ALSO DO NOT REPORT WEATHER SUCH
AS PRECIPITATION OR FOG.

IAZ001>003-012>014-020>022-031>034-043>046-211500-
   NORTHWEST IOWA

CITY           SKY/WX    TMP DP  RH WIND       PRES   REMARKS
CARROLL *      MOSUNNY   75  70  83 SW8       29.83R
CHEROKEE *     PTSUNNY   73  72  94 S5        29.80F
DENISON *      MOSUNNY   75  70  83 CALM      29.80F
LE MARS *      SUNNY     77  72  83 VRB5      29.79R
ORANGE CITY *  SUNNY     77  72  83 S5        29.79F
SHELDON *      LGT RAIN  72  70  94 CALM      29.80R
SIOUX CITY     PTSUNNY   76  67  73 SE6       29.78S
SPENCER        CLOUDY    74  69  85 S8        29.81R
STORM LAKE *   SUNNY     73  73 100 S7        29.82S
$$

IAZ055>058-069>071-079>083-090>094-211500-
   SOUTHWEST IOWA

CITY           SKY/WX    TMP DP  RH WIND       PRES   REMARKS
ATLANTIC *     DRIZZLE   75  70  83 S9        29.81F
AUDUBON *      SUNNY     77  73  88 CALM      29.85R
CLARINDA *     SUNNY     73  72  94 S7        29.87F
COUNCIL BLFS * CLOUDY    73  72  94 S5        29.81R
CRESTON *      SUNNY     75  72  88 SW13G21   29.87S
HARLAN  *      SUNNY     75  72  88 SW7       29.89R
LAMONI         MOSUNNY   76  71  85 S8        29.89S
RED OAK *      CLOUDY    73  72  94 S17G25    29.76F FOG
SHENANDOAH *   SUNNY     77  70  78 S13       29.84F
$$

IAZ047>049-059>061-072>074-084-211500-
   CENTRAL IOWA

CITY           SKY/WX    TMP DP  RH WIND       PRES   REMARKS
AMES           TSTM      74  71  91 W14G22    29.84R FOG
ANKENY *       MOSUNNY   77  72  83 SW7G14    29.84S
CHARITON *     SUNNY     77  70  78 SW13G18   29.88S
DES MOINES     CLOUDY    79  70  74 SW10      29.83S HX  82
GRINNELL*      LGT RAIN  77  70  78 S10G24    29.88R
KNOXVILLE *    MOSUNNY   77  70  78 SW12G20   29.86R
MARSHALLTOWN   CLOUDY    77  71  82 SW10      29.84R
PELLA *        LGT RAIN  77  72  83 S9        29.88S
PERRY *        PTSUNNY   75  72  88 SW3       29.85R
$$

IAZ004>006-015-016-023>025-035-036-211500-
   NORTH CENTRAL IOWA

CITY           SKY/WX    TMP DP  RH WIND       PRES   REMARKS
ALGONA *       DRIZZLE   72  70  94 VRB5      29.84F
CLARION *      MOSUNNY   75  72  88 CALM      29.87R
ESTHERVILLE    PTSUNNY   73  71  93 S10       29.81R
FORT DODGE *   CLOUDY    75  70  83 SW8       29.86R
MASON CITY     LGT RAIN  71  70  96 VRB3      29.90R
FOREST CITY *    N/A     72  72 100 CALM      29.89R
IOWA FALLS *     N/A     75  70  83 SW6       29.86S
$$

IAZ007>011-017>019-026>030-037>042-050>054-066-211500-
   NORTHEAST IOWA

CITY           SKY/WX    TMP DP  RH WIND       PRES   REMARKS
CEDAR RAPIDS   CLOUDY    74  72  93 SE6       29.89R
CHARLES CITY * CLOUDY    72  70  94 CALM      29.90R FOG
CLINTON *      CLOUDY    72  70  94 SE12      29.95S THUNDER
DECORAH *      LGT RAIN  70  70 100 CALM      29.93R
DUBUQUE        LGT RAIN  71  70  96 SE10      29.92R FOG
MONTICELLO *   MOSUNNY   73  72  94 SE7       29.90R
OELWEIN *      PTSUNNY   72  72 100 E6        29.90R FOG
WATERLOO       CLOUDY    73  71  93 E6        29.86R
$$

IAZ064-065-067-068-078-211500-
   EAST CENTRAL IOWA

CITY           SKY/WX    TMP DP  RH WIND       PRES   REMARKS
DAVENPORT      CLOUDY    73  70  90 E8        29.93R
IOWA CITY      CLOUDY    75  72  90 SE5       29.90R FOG
MT. PLEASANT * PTSUNNY   77  70  78 S10       29.90F
MUSCATINE *    SUNNY     77  72  83 S8        29.89F
QUAD CITIES    CLOUDY    76  69  79 CALM      29.91S
$$

IAZ062-063-075>077-085>089-095>099-211500-
   SOUTHEAST IOWA

CITY           SKY/WX    TMP DP  RH WIND       PRES   REMARKS
BURLINGTON     LGT RAIN  77  71  82 S10       29.91S
FAIRFIELD *    MOSUNNY   75  70  83 SW9G15    29.89S
FORT MADISON * SUNNY     79  72  78 S10       29.92F HX  82
KEOKUK *       SUNNY     75  70  83 S10       29.91F
OSKALOOSA *      N/A     75  72  88 SW5       29.89S
CENTERVILLE *  SUNNY     75  72  88 SW7       29.93R
OTTUMWA        MOSUNNY   77  69  76 SW8       29.87R
WASHINGTON *   MOSUNNY   75  72  88 SW10      29.89S
$$

ABBREVIATIONS USED IN REMARKS
   TC - TEMPERATURES IN CELSIUS
  WCI - WIND CHILL INDEX
   HX - HEAT INDEX
  VSB - VISIBILITY
$$




USA.gov is the U.S. government's official web portal to all federal, state and local government web resources and services.